Terminal Aerodrome Forecast
Issued by NWS La Crosse, WI

Home | Current Version | Previous Version | Text Only | Print | Product List | Glossary On
Versions: 1 2 3 4 5 6 7 8 9 10 11 12 13 14 15 16 17 18 19 20 21 22 23 24 25 26 27 28 29 30 31 32 33 34 35 36 37
000
FTUS43 KARX 200201 AAA
TAFLSE
TAF AMD
KLSE 200201Z 2002/2024 16005KT P6SM OVC035
     FM200800 15004KT P6SM OVC025
     FM201300 15004KT P6SM OVC018=

USA.gov is the U.S. government's official web portal to all federal, state and local government web resources and services.